| time (UTC) | temp F | wind direction | speed MPH | gust MPH | rain 1hr in | rain 24hr in | rain mn in | humidity % | barometer mb |
| 20260902170031 | 59 | 238 | 1.0 | 2.0 | 0.02 | 0.02 | 0.02 | 83 | 994.4 |
| 20260902165535 | 59 | 272 | 0.0 | 2.0 | 0.02 | 0.02 | 0.02 | 83 | 994.4 |
| 20260902165039 | 59 | 272 | 0.0 | 3.0 | 0.01 | 0.01 | 0.01 | 83 | 994.3 |
| 20260902164504 | 59 | 152 | 1.0 | 3.0 | 0.01 | 0.01 | 0.01 | 82 | 994.4 |
| 20260902164012 | 60 | 211 | 0.0 | 5.0 | 0.01 | 0.01 | 0.01 | 82 | 994.3 |
| 20260902163520 | 60 | 211 | 0.0 | 5.0 | 0.00 | 0.00 | 0.00 | 82 | 994.3 |
| 20260902163051 | 60 | 195 | 1.0 | 6.0 | 0.00 | 0.00 | 0.00 | 82 | 994.2 |
| 20260902162603 | 60 | 254 | 0.0 | 6.0 | 0.00 | 0.00 | 0.00 | 81 | 994.3 |
| 20260902162009 | 60 | 188 | 0.0 | 5.0 | 0.00 | 0.00 | 0.00 | 81 | 994.3 |
| 20260902161543 | 60 | 255 | 0.0 | 5.0 | 0.00 | 0.00 | 0.00 | 82 | 994.2 |
| 20260902161048 | 60 | 190 | 1.0 | 3.0 | 0.00 | 0.00 | 0.00 | 81 | 994.3 |
| 20260902160555 | 60 | 360 | 0.0 | 3.0 | 0.00 | 0.00 | 0.00 | 82 | 994.2 |
| 20260902160009 | 60 | 278 | 0.0 | 2.0 | 0.00 | 0.00 | 0.00 | 82 | 994.3 |
| 20260902155512 | 60 | 278 | 0.0 | 2.0 | 0.00 | 0.00 | 0.00 | 82 | 994.3 |
| 20260902155019 | 59 | 278 | 0.0 | 3.0 | 0.00 | 0.00 | 0.00 | 82 | 994.3 |
| 20260902154558 | 59 | 278 | 0.0 | 2.0 | 0.00 | 0.00 | 0.00 | 82 | 994.4 |
| 20260902154102 | 59 | 315 | 0.0 | 2.0 | 0.00 | 0.00 | 0.00 | 83 | 994.3 |
| 20260902153506 | 59 | 312 | 0.0 | 2.0 | 0.00 | 0.00 | 0.00 | 83 | 994.5 |
| 20260902153044 | 59 | 273 | 1.0 | 3.0 | 0.00 | 0.00 | 0.00 | 83 | 994.5 |
| 20260902152550 | 59 | 273 | 0.0 | 3.0 | 0.00 | 0.00 | 0.00 | 83 | 994.6 |
| 20260902152052 | 59 | 192 | 0.0 | 1.0 | 0.00 | 0.00 | 0.00 | 83 | 994.7 |
| 20260902151528 | 59 | 192 | 0.0 | 5.0 | 0.00 | 0.00 | 0.00 | 82 | 994.7 |
| 20260902151032 | 59 | 192 | 0.0 | 5.0 | 0.00 | 0.00 | 0.00 | 82 | 994.8 |
| 20260902150532 | 59 | 211 | 1.0 | 4.0 | 0.00 | 0.00 | 0.00 | 82 | 995.0 |
| 20260902150100 | 58 | 303 | 1.0 | 4.0 | 0.00 | 0.00 | 0.00 | 82 | 994.9 |
| 20260902145517 | 58 | 263 | 1.0 | 3.0 | 0.00 | 0.00 | 0.00 | 82 | 994.9 |
| 20260902145003 | 58 | 273 | 0.0 | 1.0 | 0.00 | 0.00 | 0.00 | 82 | 995.0 |
| 20260902144540 | 58 | 273 | 0.0 | 1.0 | 0.00 | 0.00 | 0.00 | 82 | 994.9 |
| 20260902144048 | 58 | 273 | 0.0 | 1.0 | 0.00 | 0.00 | 0.00 | 82 | 994.9 |
| 20260902143550 | 58 | 273 | 0.0 | 1.0 | 0.00 | 0.00 | 0.00 | 82 | 994.9 |
| 20260902143020 | 58 | 273 | 0.0 | 1.0 | 0.00 | 0.00 | 0.00 | 82 | 995.0 |
| 20260902142528 | 58 | 268 | 0.0 | 0.0 | 0.00 | 0.00 | 0.00 | 82 | 995.0 |
| 20260902142036 | 58 | 268 | 0.0 | 0.0 | 0.00 | 0.00 | 0.00 | 82 | 995.1 |
| 20260902141559 | 58 | 268 | 0.0 | 0.0 | 0.00 | 0.00 | 0.00 | 82 | 995.1 |
| 20260902141054 | 58 | 268 | 0.0 | 0.0 | 0.00 | 0.00 | 0.00 | 81 | 995.1 |
| 20260902140603 | 58 | 268 | 0.0 | 0.0 | 0.00 | 0.00 | 0.00 | 81 | 995.2 |
| 20260902140028 | 58 | 268 | 0.0 | 0.0 | 0.00 | 0.00 | 0.00 | 81 | 995.2 |
| 20260902135533 | 58 | 268 | 0.0 | 0.0 | 0.00 | 0.00 | 0.00 | 81 | 995.3 |
| 20260902135037 | 58 | 268 | 0.0 | 0.0 | 0.00 | 0.00 | 0.00 | 81 | 995.2 |
| 20260902134503 | 58 | 268 | 0.0 | 0.0 | 0.00 | 0.00 | 0.00 | 81 | 995.4 |
| 20260902134006 | 58 | 268 | 0.0 | 0.0 | 0.00 | 0.00 | 0.00 | 81 | 995.4 |
| 20260902133514 | 58 | 268 | 0.0 | 0.0 | 0.00 | 0.00 | 0.00 | 80 | 995.5 |
| 20260902133056 | 58 | 268 | 0.0 | 0.0 | 0.00 | 0.00 | 0.00 | 80 | 995.5 |
| 20260902132552 | 58 | 268 | 0.0 | 0.0 | 0.00 | 0.00 | 0.00 | 80 | 995.6 |
| 20260902132101 | 58 | 269 | 0.0 | 0.0 | 0.00 | 0.00 | 0.00 | 80 | 995.7 |
| 20260902131549 | 58 | 269 | 0.0 | 0.0 | 0.00 | 0.00 | 0.00 | 80 | 995.8 |
| 20260902131040 | 58 | 269 | 0.0 | 0.0 | 0.00 | 0.00 | 0.00 | 80 | 995.8 |
| 20260902130546 | 58 | 273 | 0.0 | 2.0 | 0.00 | 0.00 | 0.00 | 80 | 995.9 |
| 20260902130021 | 58 | 180 | 0.0 | 2.0 | 0.00 | 0.00 | 0.00 | 80 | 996.2 |
| 20260902125531 | 58 | 182 | 0.0 | 2.0 | 0.00 | 0.00 | 0.00 | 80 | 996.1 |
| 20260902125034 | 58 | 178 | 0.0 | 2.0 | 0.00 | 0.00 | 0.00 | 80 | 996.4 |
| 20260902124612 | 58 | 175 | 0.0 | 2.0 | 0.00 | 0.00 | 0.00 | 80 | 996.4 |
| 20260902124004 | 58 | 220 | 0.0 | 4.0 | 0.00 | 0.00 | 0.00 | 80 | 996.4 |
| 20260902123507 | 58 | 220 | 1.0 | 4.0 | 0.00 | 0.00 | 0.00 | 80 | 996.6 |
| 20260902123123 | 58 | 304 | 1.0 | 3.0 | 0.00 | 0.00 | 0.00 | 80 | 996.5 |
| 20260902122554 | 58 | 273 | 1.0 | 3.0 | 0.00 | 0.00 | 0.00 | 80 | 996.7 |
| 20260902122055 | 58 | 188 | 0.0 | 3.0 | 0.00 | 0.00 | 0.00 | 80 | 996.6 |
| 20260902121528 | 58 | 280 | 0.0 | 3.0 | 0.00 | 0.00 | 0.00 | 80 | 996.7 |
| 20260902121031 | 58 | 274 | 0.0 | 3.0 | 0.00 | 0.00 | 0.00 | 80 | 996.9 |
| 20260902120540 | 58 | 221 | 0.0 | 3.0 | 0.00 | 0.00 | 0.00 | 80 | 997.0 |
| 20260902120001 | 58 | 222 | 1.0 | 2.0 | 0.00 | 0.00 | 0.00 | 80 | 996.9 |
| 20260902115507 | 58 | 206 | 0.0 | 3.0 | 0.00 | 0.00 | 0.00 | 80 | 997.1 |
| 20260902115017 | 58 | 211 | 0.0 | 3.0 | 0.00 | 0.00 | 0.00 | 80 | 997.1 |
| 20260902114539 | 58 | 263 | 0.0 | 3.0 | 0.00 | 0.00 | 0.00 | 80 | 997.2 |
| 20260902114035 | 58 | 355 | 0.0 | 4.0 | 0.00 | 0.00 | 0.00 | 80 | 997.3 |
| 20260902113541 | 58 | 198 | 1.0 | 5.0 | 0.00 | 0.00 | 0.00 | 80 | 997.4 |
| 20260902113010 | 58 | 167 | 2.0 | 6.0 | 0.00 | 0.00 | 0.00 | 80 | 997.4 |
| 20260902112519 | 58 | 234 | 0.0 | 5.0 | 0.00 | 0.00 | 0.00 | 80 | 997.5 |
| 20260902112028 | 58 | 297 | 0.0 | 3.0 | 0.00 | 0.00 | 0.00 | 80 | 997.4 |
| 20260902111600 | 58 | 32 | 0.0 | 2.0 | 0.00 | 0.00 | 0.00 | 80 | 997.5 |
| 20260902111102 | 58 | 32 | 0.0 | 2.0 | 0.00 | 0.00 | 0.00 | 80 | 997.5 |
| 20260902110508 | 58 | 32 | 1.0 | 2.0 | 0.00 | 0.00 | 0.00 | 81 | 997.5 |
| 20260902110026 | 58 | 33 | 0.0 | 3.0 | 0.00 | 0.00 | 0.00 | 80 | 997.6 |
| 20260902105534 | 58 | 5 | 1.0 | 3.0 | 0.00 | 0.00 | 0.00 | 81 | 997.5 |
| 20260902105037 | 58 | 300 | 0.0 | 2.0 | 0.00 | 0.00 | 0.00 | 81 | 997.6 |
| 20260902104510 | 58 | 222 | 0.0 | 3.0 | 0.00 | 0.00 | 0.00 | 81 | 997.6 |
| 20260902104020 | 58 | 137 | 0.0 | 2.0 | 0.00 | 0.00 | 0.00 | 81 | 997.7 |
| 20260902103521 | 58 | 57 | 0.0 | 3.0 | 0.00 | 0.00 | 0.00 | 82 | 997.7 |
| 20260902103050 | 58 | 58 | 0.0 | 2.0 | 0.00 | 0.00 | 0.00 | 82 | 997.8 |
| 20260902102556 | 58 | 192 | 0.0 | 2.0 | 0.00 | 0.00 | 0.00 | 82 | 997.8 |
| 20260902102004 | 58 | 192 | 0.0 | 4.0 | 0.00 | 0.00 | 0.00 | 82 | 997.7 |
| 20260902101551 | 58 | 192 | 0.0 | 4.0 | 0.00 | 0.00 | 0.00 | 82 | 997.7 |
| 20260902101049 | 58 | 229 | 1.0 | 3.0 | 0.00 | 0.00 | 0.00 | 82 | 997.8 |
| 20260902100555 | 58 | 274 | 1.0 | 4.0 | 0.00 | 0.00 | 0.00 | 83 | 997.8 |
| 20260902100023 | 58 | 278 | 1.0 | 3.0 | 0.00 | 0.00 | 0.00 | 83 | 997.8 |
| 20260902095531 | 58 | 248 | 0.0 | 3.0 | 0.00 | 0.00 | 0.00 | 83 | 997.9 |
| 20260902095043 | 58 | 250 | 0.0 | 3.0 | 0.00 | 0.00 | 0.00 | 83 | 997.9 |
| 20260902094506 | 58 | 251 | 0.0 | 2.0 | 0.00 | 0.00 | 0.00 | 83 | 997.9 |
| 20260902094014 | 57 | 88 | 0.0 | 2.0 | 0.00 | 0.00 | 0.00 | 83 | 997.9 |
| 20260902093522 | 57 | 88 | 0.0 | 3.0 | 0.00 | 0.00 | 0.00 | 84 | 997.9 |
| 20260902093059 | 57 | 78 | 0.0 | 4.0 | 0.00 | 0.00 | 0.00 | 84 | 998.0 |
| 20260902092601 | 57 | 261 | 1.0 | 7.0 | 0.00 | 0.00 | 0.00 | 84 | 998.0 |
| 20260902092008 | 57 | 184 | 1.0 | 7.0 | 0.00 | 0.00 | 0.00 | 84 | 998.2 |
| 20260902091559 | 57 | 215 | 0.0 | 2.0 | 0.00 | 0.00 | 0.00 | 84 | 998.3 |
| 20260902091039 | 57 | 213 | 0.0 | 0.0 | 0.00 | 0.00 | 0.00 | 84 | 998.3 |
| 20260902090549 | 57 | 210 | 0.0 | 0.0 | 0.00 | 0.00 | 0.00 | 84 | 998.3 |
| 20260902090030 | 57 | 210 | 0.0 | 0.0 | 0.00 | 0.00 | 0.00 | 84 | 998.3 |
| 20260902085525 | 57 | 210 | 0.0 | 0.0 | 0.00 | 0.00 | 0.00 | 83 | 998.5 |
| 20260902085029 | 57 | 210 | 0.0 | 0.0 | 0.00 | 0.00 | 0.00 | 83 | 998.5 |
| 20260902084559 | 57 | 210 | 0.0 | 0.0 | 0.00 | 0.00 | 0.00 | 83 | 998.6 |
| 20260902084002 | 58 | 210 | 0.0 | 0.0 | 0.00 | 0.00 | 0.00 | 82 | 998.6 |
| 20260902083504 | 58 | 210 | 0.0 | 1.0 | 0.00 | 0.00 | 0.00 | 82 | 998.6 |
| 20260902083042 | 58 | 210 | 0.0 | 2.0 | 0.00 | 0.00 | 0.00 | 82 | 998.6 |
| 20260902082546 | 58 | 210 | 0.0 | 2.0 | 0.00 | 0.00 | 0.00 | 82 | 998.6 |
| 20260902082043 | 58 | 210 | 0.0 | 2.0 | 0.00 | 0.00 | 0.00 | 82 | 998.6 |
| 20260902081520 | 58 | 209 | 0.0 | 3.0 | 0.00 | 0.00 | 0.00 | 81 | 998.7 |
| 20260902081025 | 58 | 210 | 0.0 | 3.0 | 0.00 | 0.00 | 0.00 | 81 | 998.7 |
| 20260902080514 | 59 | 271 | 0.0 | 3.0 | 0.00 | 0.00 | 0.00 | 81 | 998.6 |
| 20260902080049 | 59 | 267 | 0.0 | 3.0 | 0.00 | 0.00 | 0.00 | 80 | 998.6 |
| 20260902075551 | 59 | 340 | 0.0 | 1.0 | 0.00 | 0.00 | 0.00 | 80 | 998.6 |
| 20260902075057 | 59 | 340 | 0.0 | 2.0 | 0.00 | 0.00 | 0.00 | 80 | 998.7 |
| 20260902074517 | 60 | 340 | 1.0 | 2.0 | 0.00 | 0.00 | 0.00 | 79 | 998.6 |
| 20260902074031 | 60 | 167 | 0.0 | 2.0 | 0.00 | 0.00 | 0.00 | 79 | 998.6 |
| 20260902073538 | 60 | 167 | 0.0 | 1.0 | 0.00 | 0.00 | 0.00 | 79 | 998.6 |
| 20260902073001 | 60 | 167 | 0.0 | 3.0 | 0.00 | 0.00 | 0.00 | 79 | 998.7 |
| 20260902072508 | 60 | 167 | 0.0 | 1.0 | 0.00 | 0.00 | 0.00 | 79 | 998.7 |
| 20260902072014 | 60 | 32 | 0.0 | 2.0 | 0.00 | 0.00 | 0.00 | 79 | 998.7 |
| 20260902071535 | 61 | 170 | 0.0 | 2.0 | 0.00 | 0.00 | 0.00 | 79 | 998.9 |
| 20260902071035 | 61 | 170 | 0.0 | 3.0 | 0.00 | 0.00 | 0.00 | 79 | 998.8 |
| 20260902070542 | 61 | 170 | 0.0 | 6.0 | 0.00 | 0.00 | 0.00 | 78 | 998.9 |
| 20260902070011 | 61 | 142 | 1.0 | 8.0 | 0.00 | 0.00 | 0.00 | 78 | 999.0 |
| 20260902065520 | 61 | 158 | 4.0 | 8.0 | 0.00 | 0.00 | 0.00 | 78 | 999.1 |
| 20260902065028 | 61 | 232 | 0.0 | 5.0 | 0.00 | 0.00 | 0.00 | 78 | 999.3 |
| 20260902064556 | 61 | 172 | 1.0 | 9.0 | 0.00 | 0.00 | 0.00 | 77 | 999.2 |
| 20260902064004 | 61 | 183 | 2.0 | 10.0 | 0.00 | 0.00 | 0.00 | 77 | 999.3 |
| 20260902063508 | 61 | 213 | 0.0 | 4.0 | 0.00 | 0.00 | 0.00 | 77 | 999.2 |
| 20260902063053 | 61 | 213 | 1.0 | 9.0 | 0.00 | 0.00 | 0.00 | 77 | 999.2 |
| 20260902062555 | 61 | 217 | 2.0 | 9.0 | 0.00 | 0.00 | 0.00 | 77 | 999.2 |
| 20260902062057 | 60 | 172 | 2.0 | 6.0 | 0.00 | 0.00 | 0.00 | 77 | 999.2 |
| 20260902061540 | 60 | 184 | 1.0 | 7.0 | 0.00 | 0.00 | 0.00 | 77 | 999.1 |
| 20260902061042 | 60 | 194 | 1.0 | 7.0 | 0.00 | 0.00 | 0.00 | 77 | 999.2 |
| 20260902060543 | 60 | 264 | 2.0 | 5.0 | 0.00 | 0.00 | 0.00 | 77 | 999.1 |
| 20260902060014 | 60 | 153 | 2.0 | 5.0 | 0.00 | 0.00 | 0.00 | 77 | 999.0 |
| 20260902055528 | 60 | 227 | 1.0 | 4.0 | 0.00 | 0.00 | 0.00 | 77 | 999.2 |
| 20260902055038 | 60 | 100 | 0.0 | 0.0 | 0.00 | 0.00 | 0.00 | 77 | 999.2 |
| 20260902054557 | 60 | 100 | 0.0 | 0.0 | 0.00 | 0.00 | 0.00 | 77 | 999.2 |
| 20260902054003 | 60 | 100 | 0.0 | 0.0 | 0.00 | 0.00 | 0.00 | 77 | 999.2 |
| 20260902053510 | 61 | 228 | 0.0 | 0.0 | 0.00 | 0.00 | 0.00 | 77 | 999.4 |
| 20260902053040 | 60 | 228 | 0.0 | 0.0 | 0.00 | 0.00 | 0.00 | 77 | 999.2 |
| 20260902052547 | 60 | 228 | 0.0 | 0.0 | 0.00 | 0.00 | 0.00 | 77 | 999.4 |
| 20260902052052 | 61 | 228 | 0.0 | 0.0 | 0.00 | 0.00 | 0.00 | 77 | 999.4 |
| 20260902051521 | 61 | 228 | 0.0 | 0.0 | 0.00 | 0.00 | 0.00 | 77 | 999.3 |
| 20260902051026 | 61 | 228 | 0.0 | 0.0 | 0.00 | 0.00 | 0.00 | 76 | 999.2 |
| 20260902050533 | 61 | 228 | 0.0 | 0.0 | 0.00 | 0.00 | 0.00 | 76 | 999.2 |
| 20260902050007 | 61 | 228 | 0.0 | 0.0 | 0.00 | 0.00 | 0.00 | 76 | 999.4 |
| 20260902045510 | 61 | 228 | 0.0 | 0.0 | 0.00 | 0.00 | 0.00 | 76 | 999.5 |
| 20260902045009 | 61 | 228 | 0.0 | 0.0 | 0.00 | 0.00 | 0.00 | 76 | 999.4 |
| 20260902044550 | 61 | 228 | 0.0 | 0.0 | 0.00 | 0.00 | 0.00 | 75 | 999.5 |
| 20260902044050 | 61 | 229 | 0.0 | 0.0 | 0.00 | 0.00 | 0.00 | 75 | 999.6 |
| 20260902043537 | 61 | 229 | 0.0 | 0.0 | 0.00 | 0.00 | 0.00 | 75 | 999.5 |
| 20260902043103 | 61 | 229 | 0.0 | 0.0 | 0.00 | 0.00 | 0.00 | 74 | 999.5 |
| 20260902042507 | 61 | 229 | 0.0 | 0.0 | 0.00 | 0.00 | 0.00 | 74 | 999.5 |
| 20260902042021 | 61 | 229 | 0.0 | 0.0 | 0.00 | 0.00 | 0.00 | 74 | 999.5 |
| 20260902041600 | 62 | 229 | 0.0 | 0.0 | 0.00 | 0.00 | 0.00 | 74 | 999.4 |
| 20260902041101 | 62 | 229 | 0.0 | 0.0 | 0.00 | 0.00 | 0.00 | 73 | 999.5 |
| 20260902040505 | 62 | 235 | 0.0 | 2.0 | 0.00 | 0.00 | 0.00 | 73 | 999.5 |
| 20260902040028 | 62 | 235 | 0.0 | 3.0 | 0.00 | 0.00 | 0.00 | 73 | 999.5 |
| 20260902035534 | 62 | 235 | 1.0 | 3.0 | 0.00 | 0.00 | 0.00 | 72 | 999.5 |
| 20260902035040 | 62 | 154 | 0.0 | 2.0 | 0.00 | 0.00 | 0.00 | 72 | 999.4 |
| 20260902034515 | 62 | 153 | 0.0 | 4.0 | 0.00 | 0.00 | 0.00 | 72 | 999.3 |
| 20260902034023 | 63 | 140 | 0.0 | 4.0 | 0.00 | 0.00 | 0.00 | 71 | 999.3 |
| 20260902033529 | 63 | 255 | 0.0 | 0.0 | 0.00 | 0.00 | 0.00 | 70 | 999.2 |
| 20260902033059 | 63 | 255 | 0.0 | 1.0 | 0.00 | 0.00 | 0.00 | 70 | 999.2 |
| 20260902032506 | 63 | 255 | 0.0 | 2.0 | 0.00 | 0.00 | 0.00 | 70 | 999.1 |
| 20260902032021 | 63 | 284 | 0.0 | 2.0 | 0.00 | 0.00 | 0.00 | 70 | 999.1 |
| 20260902031552 | 63 | 173 | 0.0 | 2.0 | 0.00 | 0.00 | 0.00 | 69 | 999.1 |
| 20260902031055 | 64 | 173 | 0.0 | 3.0 | 0.00 | 0.00 | 0.00 | 69 | 999.1 |
| 20260902030504 | 64 | 173 | 1.0 | 3.0 | 0.00 | 0.00 | 0.00 | 69 | 999.1 |
| 20260902030043 | 64 | 196 | 0.0 | 2.0 | 0.00 | 0.00 | 0.00 | 69 | 999.0 |
| 20260902025549 | 64 | 196 | 0.0 | 3.0 | 0.00 | 0.00 | 0.00 | 69 | 999.0 |
| 20260902025055 | 64 | 196 | 0.0 | 3.0 | 0.00 | 0.00 | 0.00 | 69 | 999.1 |
| 20260902024535 | 64 | 211 | 0.0 | 2.0 | 0.00 | 0.00 | 0.00 | 68 | 999.1 |
| 20260902024041 | 64 | 192 | 0.0 | 3.0 | 0.00 | 0.00 | 0.00 | 68 | 999.1 |
| 20260902023547 | 64 | 191 | 1.0 | 3.0 | 0.00 | 0.00 | 0.00 | 68 | 999.1 |
| 20260902023027 | 65 | 155 | 0.0 | 3.0 | 0.00 | 0.00 | 0.00 | 68 | 999.1 |
| 20260902022538 | 65 | 155 | 1.0 | 3.0 | 0.00 | 0.00 | 0.00 | 68 | 999.1 |
| 20260902022044 | 65 | 286 | 1.0 | 4.0 | 0.00 | 0.00 | 0.00 | 68 | 999.2 |
| 20260902021515 | 65 | 260 | 2.0 | 6.0 | 0.00 | 0.00 | 0.00 | 68 | 999.1 |
| 20260902021027 | 65 | 156 | 0.0 | 8.0 | 0.00 | 0.00 | 0.00 | 67 | 999.1 |
| 20260902020535 | 65 | 230 | 1.0 | 8.0 | 0.00 | 0.00 | 0.00 | 68 | 999.1 |
| 20260902020001 | 65 | 148 | 0.0 | 4.0 | 0.00 | 0.00 | 0.00 | 68 | 999.1 |
| 20260902015509 | 66 | 142 | 1.0 | 4.0 | 0.00 | 0.00 | 0.00 | 68 | 999.0 |
| 20260902015018 | 66 | 146 | 1.0 | 4.0 | 0.00 | 0.00 | 0.00 | 68 | 999.0 |
| 20260902014556 | 66 | 169 | 1.0 | 5.0 | 0.00 | 0.00 | 0.00 | 67 | 999.0 |
| 20260902014059 | 66 | 170 | 0.0 | 5.0 | 0.00 | 0.00 | 0.00 | 66 | 999.0 |
| 20260902013503 | 66 | 143 | 2.0 | 5.0 | 0.00 | 0.00 | 0.00 | 66 | 998.8 |
| 20260902013041 | 66 | 128 | 1.0 | 7.0 | 0.00 | 0.00 | 0.00 | 66 | 998.8 |
| 20260902012548 | 66 | 223 | 1.0 | 7.0 | 0.00 | 0.00 | 0.00 | 66 | 998.8 |
| 20260902012059 | 66 | 290 | 1.0 | 7.0 | 0.00 | 0.00 | 0.00 | 67 | 998.8 |
| 20260902011535 | 67 | 196 | 2.0 | 6.0 | 0.00 | 0.00 | 0.00 | 67 | 998.8 |
| 20260902011049 | 67 | 168 | 2.0 | 5.0 | 0.00 | 0.00 | 0.00 | 68 | 998.7 |
| 20260902010553 | 67 | 246 | 1.0 | 5.0 | 0.00 | 0.00 | 0.00 | 68 | 998.7 |
| 20260902010033 | 66 | 250 | 1.0 | 3.0 | 0.00 | 0.00 | 0.00 | 67 | 998.7 |
| 20260902005533 | 66 | 228 | 0.0 | 2.0 | 0.00 | 0.00 | 0.00 | 67 | 998.7 |
| 20260902005041 | 66 | 149 | 0.0 | 1.0 | 0.00 | 0.00 | 0.00 | 67 | 998.7 |
| 20260902004505 | 66 | 149 | 0.0 | 5.0 | 0.00 | 0.00 | 0.00 | 67 | 998.7 |
| 20260902004022 | 66 | 149 | 1.0 | 5.0 | 0.00 | 0.00 | 0.00 | 67 | 998.7 |
| 20260902003525 | 66 | 246 | 0.0 | 8.0 | 0.00 | 0.00 | 0.00 | 66 | 998.8 |
| 20260902003055 | 67 | 173 | 2.0 | 8.0 | 0.00 | 0.00 | 0.00 | 66 | 998.7 |
| 20260902002502 | 67 | 99 | 1.0 | 10.0 | 0.00 | 0.00 | 0.00 | 66 | 998.7 |
| 20260902002011 | 67 | 205 | 3.0 | 10.0 | 0.00 | 0.00 | 0.00 | 66 | 998.7 |
| 20260902001543 | 67 | 91 | 1.0 | 7.0 | 0.00 | 0.00 | 0.00 | 66 | 998.6 |
| 20260902001054 | 67 | 178 | 1.0 | 5.0 | 0.00 | 0.00 | 0.00 | 66 | 998.5 |
| 20260902000602 | 67 | 152 | 1.0 | 7.0 | 0.00 | 0.00 | 0.00 | 66 | 998.5 |
| 20260902000035 | 67 | 148 | 1.0 | 7.0 | 0.00 | 0.00 | 0.00 | 65 | 998.5 |
| 20260901235544 | 67 | 175 | 2.0 | 6.0 | 0.00 | 0.00 | 0.00 | 65 | 998.5 |
| 20260901235048 | 67 | 181 | 1.0 | 6.0 | 0.00 | 0.00 | 0.00 | 65 | 998.5 |
| 20260901234523 | 67 | 153 | 1.0 | 6.0 | 0.00 | 0.00 | 0.00 | 66 | 998.5 |
| 20260901234033 | 67 | 235 | 1.0 | 6.0 | 0.00 | 0.00 | 0.00 | 66 | 998.7 |
| 20260901233543 | 67 | 152 | 1.0 | 7.0 | 0.00 | 0.00 | 0.00 | 65 | 998.7 |
| 20260901233007 | 67 | 202 | 3.0 | 7.0 | 0.00 | 0.00 | 0.00 | 65 | 998.7 |
| 20260901232525 | 67 | 194 | 1.0 | 9.0 | 0.00 | 0.00 | 0.00 | 65 | 998.8 |
| 20260901232030 | 68 | 253 | 2.0 | 9.0 | 0.00 | 0.00 | 0.00 | 64 | 998.7 |
| 20260901231559 | 68 | 254 | 1.0 | 6.0 | 0.00 | 0.00 | 0.00 | 63 | 998.7 |
| 20260901231008 | 68 | 200 | 0.0 | 6.0 | 0.00 | 0.00 | 0.00 | 64 | 998.7 |
| 20260901230513 | 68 | 194 | 2.0 | 9.0 | 0.00 | 0.00 | 0.00 | 64 | 998.7 |
| 20260901230053 | 68 | 113 | 4.0 | 9.0 | 0.00 | 0.00 | 0.00 | 64 | 998.8 |
| 20260901225558 | 67 | 262 | 2.0 | 8.0 | 0.00 | 0.00 | 0.00 | 65 | 998.8 |
| 20260901225006 | 67 | 250 | 1.0 | 7.0 | 0.00 | 0.00 | 0.00 | 66 | 998.8 |
| 20260901224541 | 67 | 175 | 2.0 | 7.0 | 0.00 | 0.00 | 0.00 | 67 | 998.9 |
| 20260901224046 | 66 | 305 | 2.0 | 6.0 | 0.00 | 0.00 | 0.00 | 68 | 998.9 |
| 20260901223553 | 66 | 238 | 1.0 | 5.0 | 0.00 | 0.00 | 0.00 | 68 | 999.0 |
| 20260901223029 | 66 | 215 | 0.0 | 5.0 | 0.00 | 0.00 | 0.00 | 67 | 999.1 |
| 20260901222535 | 67 | 325 | 1.0 | 6.0 | 0.00 | 0.00 | 0.00 | 67 | 999.1 |
| 20260901222040 | 67 | 153 | 3.0 | 7.0 | 0.00 | 0.00 | 0.00 | 66 | 999.0 |
| 20260901221525 | 67 | 252 | 1.0 | 7.0 | 0.00 | 0.00 | 0.00 | 66 | 999.0 |
| 20260901221027 | 67 | 190 | 1.0 | 9.0 | 0.00 | 0.00 | 0.00 | 65 | 998.8 |
| 20260901220532 | 67 | 180 | 4.0 | 9.0 | 0.00 | 0.00 | 0.00 | 65 | 998.8 |
| 20260901220101 | 67 | 206 | 2.0 | 6.0 | 0.00 | 0.00 | 0.00 | 66 | 998.8 |
| 20260901215517 | 67 | 165 | 2.0 | 7.0 | 0.00 | 0.00 | 0.00 | 66 | 998.8 |
| 20260901215020 | 67 | 173 | 2.0 | 8.0 | 0.00 | 0.00 | 0.00 | 66 | 998.8 |
| 20260901214551 | 67 | 198 | 3.0 | 6.0 | 0.00 | 0.00 | 0.00 | 66 | 998.8 |
| 20260901214052 | 67 | 123 | 3.0 | 5.0 | 0.00 | 0.00 | 0.00 | 66 | 998.9 |
| 20260901213559 | 67 | 163 | 1.0 | 9.0 | 0.00 | 0.00 | 0.00 | 67 | 998.9 |
| 20260901213029 | 67 | 176 | 3.0 | 7.0 | 0.00 | 0.00 | 0.00 | 68 | 998.9 |
| 20260901212541 | 66 | 355 | 1.0 | 5.0 | 0.00 | 0.00 | 0.00 | 68 | 998.9 |
| 20260901212049 | 66 | 80 | 2.0 | 5.0 | 0.00 | 0.00 | 0.00 | 68 | 999.0 |
| 20260901211503 | 66 | 115 | 1.0 | 3.0 | 0.00 | 0.00 | 0.00 | 67 | 999.0 |
| 20260901211017 | 67 | 69 | 1.0 | 4.0 | 0.00 | 0.00 | 0.00 | 67 | 998.9 |
| 20260901210522 | 67 | 229 | 2.0 | 6.0 | 0.00 | 0.00 | 0.00 | 68 | 999.0 |
| 20260901210107 | 66 | 162 | 1.0 | 4.0 | 0.00 | 0.00 | 0.00 | 68 | 998.9 |
| 20260901205600 | 65 | 215 | 1.0 | 4.0 | 0.00 | 0.00 | 0.00 | 69 | 999.0 |
| 20260901205014 | 65 | 205 | 1.0 | 4.0 | 0.00 | 0.00 | 0.00 | 70 | 999.2 |
| 20260901204533 | 65 | 172 | 1.0 | 4.0 | 0.00 | 0.00 | 0.00 | 70 | 999.1 |
| 20260901204034 | 65 | 254 | 2.0 | 4.0 | 0.00 | 0.00 | 0.00 | 70 | 999.2 |
| 20260901203540 | 65 | 191 | 1.0 | 5.0 | 0.00 | 0.00 | 0.00 | 70 | 999.2 |
| 20260901203029 | 65 | 194 | 2.0 | 5.0 | 0.00 | 0.00 | 0.00 | 70 | 999.3 |
| 20260901202526 | 65 | 265 | 2.0 | 5.0 | 0.00 | 0.00 | 0.00 | 71 | 999.2 |
| 20260901202032 | 65 | 190 | 2.0 | 5.0 | 0.00 | 0.00 | 0.00 | 71 | 999.1 |
| 20260901201556 | 66 | 205 | 0.0 | 3.0 | 0.00 | 0.00 | 0.00 | 70 | 999.3 |
| 20260901201008 | 66 | 191 | 1.0 | 4.0 | 0.00 | 0.00 | 0.00 | 70 | 999.2 |
| 20260901200510 | 66 | 288 | 1.0 | 7.0 | 0.00 | 0.00 | 0.00 | 69 | 999.3 |
| 20260901200057 | 67 | 311 | 1.0 | 7.0 | 0.00 | 0.00 | 0.00 | 69 | 999.2 |
| 20260901195603 | 67 | 171 | 2.0 | 4.0 | 0.00 | 0.00 | 0.00 | 69 | 999.2 |
| 20260901195010 | 67 | 176 | 1.0 | 3.0 | 0.00 | 0.00 | 0.00 | 69 | 999.2 |
| 20260901194546 | 67 | 184 | 0.0 | 3.0 | 0.00 | 0.00 | 0.00 | 68 | 999.3 |
| 20260901194050 | 67 | 169 | 1.0 | 8.0 | 0.00 | 0.00 | 0.00 | 68 | 999.3 |
| 20260901193600 | 67 | 76 | 2.0 | 8.0 | 0.00 | 0.00 | 0.00 | 68 | 999.4 |
| 20260901193035 | 67 | 223 | 3.0 | 6.0 | 0.00 | 0.00 | 0.00 | 69 | 999.4 |
| 20260901192544 | 66 | 166 | 1.0 | 5.0 | 0.00 | 0.00 | 0.00 | 70 | 999.4 |
| 20260901192051 | 66 | 328 | 1.0 | 5.0 | 0.00 | 0.00 | 0.00 | 70 | 999.4 |
| 20260901191525 | 66 | 209 | 2.0 | 4.0 | 0.00 | 0.00 | 0.00 | 70 | 999.6 |
| 20260901191038 | 66 | 158 | 1.0 | 6.0 | 0.00 | 0.00 | 0.00 | 70 | 999.5 |
| 20260901190540 | 66 | 219 | 1.0 | 8.0 | 0.00 | 0.00 | 0.00 | 70 | 999.6 |
| 20260901190110 | 66 | 217 | 1.0 | 5.0 | 0.00 | 0.00 | 0.00 | 70 | 999.7 |
| 20260901185606 | 66 | 207 | 2.0 | 5.0 | 0.00 | 0.00 | 0.00 | 71 | 999.6 |
| 20260901185003 | 66 | 83 | 1.0 | 7.0 | 0.00 | 0.00 | 0.00 | 72 | 999.7 |
| 20260901184546 | 66 | 161 | 4.0 | 7.0 | 0.00 | 0.00 | 0.00 | 71 | 999.7 |
| 20260901184051 | 65 | 26 | 1.0 | 3.0 | 0.00 | 0.00 | 0.00 | 74 | 999.7 |
| 20260901183556 | 64 | 178 | 1.0 | 3.0 | 0.00 | 0.00 | 0.00 | 74 | 999.8 |
| 20260901183035 | 64 | 308 | 1.0 | 4.0 | 0.00 | 0.00 | 0.00 | 74 | 999.9 |
| 20260901182540 | 64 | 188 | 1.0 | 5.0 | 0.00 | 0.00 | 0.00 | 74 | 999.9 |
| 20260901182051 | 64 | 183 | 3.0 | 6.0 | 0.00 | 0.00 | 0.00 | 74 | 999.8 |
| 20260901181526 | 64 | 234 | 0.0 | 9.0 | 0.00 | 0.00 | 0.00 | 75 | 999.8 |
| 20260901181033 | 64 | 282 | 1.0 | 9.0 | 0.00 | 0.00 | 0.00 | 75 | 999.8 |
| 20260901180538 | 64 | 351 | 1.0 | 4.0 | 0.00 | 0.00 | 0.00 | 76 | 999.8 |
| 20260901180008 | 63 | 173 | 1.0 | 3.0 | 0.00 | 0.00 | 0.00 | 76 | 999.8 |
| 20260901175515 | 64 | 50 | 1.0 | 8.0 | 0.00 | 0.00 | 0.00 | 76 | 999.8 |
| 20260901175028 | 63 | 173 | 4.0 | 8.0 | 0.00 | 0.00 | 0.00 | 76 | 999.7 |
| 20260901174614 | 63 | 155 | 1.0 | 9.0 | 0.00 | 0.00 | 0.00 | 77 | 999.6 |
| 20260901174002 | 63 | 170 | 4.0 | 9.0 | 0.00 | 0.00 | 0.00 | 77 | 999.7 |
| 20260901173511 | 63 | 196 | 1.0 | 7.0 | 0.00 | 0.00 | 0.00 | 77 | 999.7 |
| 20260901173046 | 63 | 138 | 1.0 | 7.0 | 0.00 | 0.00 | 0.00 | 77 | 999.7 |
| 20260901172554 | 62 | 89 | 1.0 | 7.0 | 0.00 | 0.00 | 0.00 | 78 | 999.7 |
| 20260901172100 | 62 | 120 | 2.0 | 5.0 | 0.00 | 0.00 | 0.00 | 78 | 999.7 |
| 20260901171527 | 62 | 209 | 2.0 | 5.0 | 0.00 | 0.00 | 0.00 | 78 | 999.5 |
| 20260901171030 | 62 | 279 | 2.0 | 7.0 | 0.00 | 0.00 | 0.00 | 79 | 999.6 |
| 20260901170538 | 62 | 259 | 2.0 | 7.0 | 0.00 | 0.00 | 0.00 | 80 | 999.6 |